ARIANE 44LP DEB, 33542

Orbit data source: Space-Track

ARIANE 44LP DEB, 33542 is space debris in HEO originally from a launch on Sun, 11 Dec 1988 UTC launched from the French Guiana (FRGUI). Debris objects in space refer to the collection of defunct objects orbiting the Earth. Examples of debris include non-operational satellites, rocket bodies, and fragments generated from explosions, collisions, or faulty payload assembly.

Loading next visibility...
Identifier
33542, 1988-109R
Orbit
HEO
Country
Flag of FRFR
Related business
Manufacturer
Unknown
Mission
Spacecraft
Bus & Motor
Unknown
Mass
Unknown
Launch date (UTC)
1988-12-11 (37 years ago)
Launch vehicle
Unknown
Launch site
French Guiana (FRGUI)
Object type
Payload
Rocket body
Debris
Shape & HBR
Unknown shape, 1.1 m
Radar Cross Section
Medium (>0.1 m² and <1 m²)

Expand to show TLE details & history
Last TLE update: 1 day ago

TLE from 1 day ago
0 ARIANE 44LP DEB
1 33542U 88109R   25287.50681468  .00000273  00000-0  10816-1 0  9994
2 33542   7.4260 297.7356 7132979 296.7026 238.8388  2.24343494166072
Epoch: 2025-10-14T12:09Z
TLE epoch observation values (Epoch: 2025-10-14T12:09:48.788Z)
Latitude
5.55184°
Longitude
-136.2976°
Altitude
32,611.454 km
Speed
2.068 km/s
True Right ascension
04h 37m 47s
True Declination
5° 32' 45"
Sunlit
Object was in daylight at epoch
Visualization orbit readout
Latitude
Unknown
Longitude
Unknown
Altitude
Unknown
Speed
Unknown
Apparent Right ascension
Unknown
Apparent Declination
Unknown
Sunlit
N/A
Visualization observer readout
Local Sidereal Time
12:02:34
Azimuth
Unknown
Elevation
Unknown
Doppler factor
Unknown
Orbital elements
Apogee altitude
35,861.012 km
Perigee altitude
690.133 km
Semi-major axis
24,653.71 km
Eccentricity
0.7133
Inclination
7.426°
RAAN
297.7356°
Arg. of periapsis
296.7026°
True anomaly
194.8099°
Mean anomaly
238.8388°
Eccentric anomaly
215.25093°
Mean motion
0.56069 °/min
Orbital period
642.07 mins
BSTAR
0.010816
Loading maneuver chart data...
Computing Atmospheric mass density...
Loading historical data...
Loading historical data...
Loading historical data...
Loading historical data...
Loading historical data...
Loading historical data...
Loading historical data...

Documentation

Showing up to 5 results
|